Weather observations for the past three days for
Eureka Airport ASOS
Imperial (Metric)
Date Time (pdt) Wind (mph) Vis. (mi.) Weather Sky Cond. Temperature (ºF) Relative Humidity Wind Chill (°F) Heat Index (°F) Pressure Precipitation (in)
Air Dwpt 6 hour altimeter (in) sea level (mb) 1 hr 3 hr 6 hr
Max. Min.
02 20:53 Calm 0.00 NULL NULL 57.9 27 31% 30.04 1010.7
02 19:53 Vrbl 3 0.00 NULL NULL 59 26.1 28% 30.02 1010.4
02 18:53 N 8 0.00 NULL NULL 63 23 22% 30.01 1010.4
02 17:53 NW 9 0.00 NULL NULL 70 15.1 12% 30 1010.0
02 16:53 Calm 0.00 NULL NULL 71.1 15.1 72 66 12% 30 1008.7
02 15:53 Vrbl 3 0.00 NULL NULL 72 18 13% 30.01 1008.8
02 14:53 N 8 0.00 NULL NULL 71.1 17.1 13% 30.02 1009.0
02 13:53 N 7 0.00 NULL NULL 71.1 17.1 13% 30.03 1008.9
02 12:53 NE 6 0.00 NULL NULL 70 17.1 13% 30.04 1009.7
02 11:53 Vrbl 5 0.00 NULL NULL 66.9 18 15% 30.06 1011.0
02 10:53 NE 10 0.00 NULL NULL 66.9 19.9 66.9 41 17% 30.07 1011.0
02 09:53 N 8 0.00 NULL NULL 64.9 19 17% 30.07 1011.1
02 08:53 N 6 0.00 NULL NULL 64 19 18% 30.07 1011.0
02 07:53 S 7 0.00 NULL NULL 57.9 17.1 20% 30.06 1011.2
02 06:53 S 12 0.00 NULL NULL 50 15.1 25% 46 30.06 1010.9
02 05:53 S 5 0.00 NULL NULL 45 16 31% 43 30.04 1010.3
02 04:53 SW 7 0.00 NULL NULL 54 12 64 48.9 19% 30.01 1008.3
02 03:53 Vrbl 7 0.00 NULL NULL 53.1 15.1 22% 30 1008.0
02 02:53 S 8 0.00 NULL NULL 57.9 14 18% 29.99 1007.0
02 01:53 Vrbl 7 0.00 NULL NULL 61 12 14% 29.99 1006.7
02 00:53 SW 5 0.00 NULL NULL 59 14 17% 29.99 1007.4
01 23:53 E 5 0.00 NULL NULL 55.9 21 26% 29.99 1007.8
01 22:53 SE 7 0.00 NULL NULL 59 19 80.1 57.9 21% 29.98 1007.2
01 21:53 S 12 0.00 NULL NULL 61 17.1 18% 29.98 1007.9
01 20:53 S 12 0.00 NULL NULL 62.1 19.9 20% 29.98 1008.0
01 19:53 S 12 0.00 NULL NULL 64 19 18% 29.96 1007.2
01 18:53 S 17 0.00 NULL NULL 73.9 16 11% 29.95 1006.0
01 17:53 S 18 G 26 0.00 NULL NULL 78.1 14 9% 77 29.95 1005.6
01 16:53 S 20 G 28 0.00 NULL NULL 79 12.9 81 72 8% 77 29.95 1005.5
01 15:53 SW 20 G 29 0.00 NULL NULL 80.1 10.9 7% 78 29.96 1005.8
01 14:53 S 21 G 29 0.00 Breezy NULL 80.1 16 9% 78 29.97 1006.0
01 13:53 S 23 G 32 0.00 Breezy NULL 78.1 15.1 9% 77 30 1007.2
01 12:53 S 23 G 32 0.00 Breezy NULL 77 18 11% 76 30.02 1008.0
01 11:53 S 17 G 32 0.00 NULL NULL 73.9 21 14% 30.05 1009.0
01 10:53 S 23 G 36 0.00 Breezy NULL 72 27 72 57.9 19% 30.07 1009.9
01 08:53 S 17 0.00 NULL NULL 64 41 43% 30.07 1010.6
01 07:53 S 16 0.00 NULL NULL 62.1 42.1 48% 30.06 1010.6
01 06:53 S 13 0.00 NULL NULL 60.1 43 53% 30.05 1009.8
01 05:53 SE 13 0.00 NULL NULL 60.1 41 50% 30.05 1010.0
01 04:53 SE 15 0.00 NULL NULL 59 43 64 59 56% 30.04 1009.8
01 03:53 SE 16 0.00 NULL NULL 60.1 42.1 52% 30.05 1009.2
01 02:53 SE 10 0.00 NULL NULL 61 41 48% 30.04 1008.6
01 01:53 SE 10 0.00 NULL NULL 62.1 39.9 44% 30.03 1008.2
01 00:53 Calm 0.00 NULL NULL 63 39 41% 30.05 1008.9
31 23:53 SE 7 0.00 NULL NULL 63 39 41% 30.05 1008.9
31 22:53 SE 10 0.00 NULL NULL 64 39.9 72 62.1 41% 30.05 1009.3
31 21:53 SE 15 0.00 NULL NULL 64.9 39.9 40% 30.05 1010.1
31 20:53 SE 12 G 16 0.00 NULL NULL 64.9 39.9 40% 30.05 1010.3
31 19:53 SE 22 G 30 0.00 Breezy NULL 66 39.9 39% 30.02 1010.0
31 18:53 S 8 0.00 NULL NULL 71.1 37.9 30% 30.02 1010.0
31 17:53 S 14 G 29 0.00 NULL NULL 69.1 39.9 35% 30.06 1012.0
31 16:53 S 26 G 33 0.00 Windy NULL 71.1 37.9 80.1 71.1 30% 30.06 1011.8
31 15:53 S 10 G 21 0.00 NULL NULL 75 32 21% 76 30.03 1009.8
31 14:53 W 14 G 23 0.00 NULL NULL 78.1 35.1 21% 78 30.05 1010.2
31 13:53 S 17 G 29 0.00 NULL NULL 79 34 20% 78 30.06 1010.3
31 12:53 S 17 0.00 NULL NULL 75.9 34 22% 77 30.08 1011.4
31 11:53 SE 15 G 23 0.00 NULL NULL 75.9 30.9 19% 76 30.09 1011.8
31 10:53 Vrbl 3 0.00 NULL NULL 71.1 30.9 71.1 44.1 23% 30.11 1013.1
31 09:53 Calm 0.00 NULL NULL 64.9 28 25% 30.12 1013.2
31 08:53 NE 5 0.00 NULL NULL 60.1 30 32% 30.13 1013.8
31 07:53 NE 3 0.00 NULL NULL 55 37 51% 30.13 1013.9
31 06:53 Calm 0.00 NULL NULL 50 33.1 52% 30.12 1013.2
31 05:53 S 7 0.00 NULL NULL 46.9 33.1 59% 44 30.11 1012.5
31 04:53 Calm 0.00 NULL NULL 46.9 34 54 46 61% 30.11 1012.1
31 03:53 S 5 0.00 NULL NULL 50 33.1 52% 49 30.1 1011.6
31 02:53 S 5 0.00 NULL NULL 52 30.9 45% 30.1 1011.4
31 01:53 S 7 0.00 NULL NULL 50 33.1 52% 48 30.1 1011.6
31 00:53 S 5 0.00 NULL NULL 50 33.1 52% 49 30.11 1012.3
30 23:53 S 6 0.00 NULL NULL 52 34 50% 30.12 1012.8
30 22:53 SE 7 0.00 NULL NULL 51.1 37 82 51.1 59% 30.12 1013.1
30 21:53 Calm 0.00 NULL NULL 59 34 39% 30.11 1012.4
Date Time (pdt) Wind (mph) Vis. (mi.) Weather Sky Cond. Air Dwpt Max. Min. Relative Humidity Wind Chill (°F) Heat Index (°F) altimeter (in) sea level (mb) 1 hr 3 hr 6 hr
6 hour
Temperature (ºF) Pressure Precipitation (in)